Home > Weather > Târgu Mureş > Past weeks

Flag for Romania Past Weather in Târgu Mureş, Romania — Yesterday and Last 2 Weeks

Now
55 °F

Light rain. More clouds than sun.


Feels Like: 53 °F
Forecast: 50 / 68 °F
Wind: 10 mph from Northwest

Location: Tirgu Mures Airport

Current Time: May 25, 2016 at 8:20:05 AM

Latest Report: May 25, 2016 at 7:30 AM


Visibility: N/A

Pressure: 29.53 "Hg

Humidity: 88%

Dew Point: 52 °F

Location of Târgu MureşLocation

Past Weather in Târgu Mureş — Graph

°F

Târgu Mureş Temperature Yesterday

Maximum temperature yesterday: 77 °F (at 1:00 PM)
Minimum temperature yesterday: 52 °F (at 5:00 AM)
Average temperature yesterday: 61 °F

High & Low Weather Summary for the Past Weeks

 TemperatureHumidityPressure
High81 °F (May 23, 5:00 PM)100% (May 10, 7:00 AM)30.15 "Hg (May 10, 7:00 AM)
Low39 °F (May 20, 5:30 AM)30% (May 22, 4:30 PM)29.47 "Hg (May 13, 5:00 AM)
Average58 °F72%29.87 "Hg
* Reported May 10 7:00 AM — May 25 7:00 AM, Târgu Mureş, Weather by CustomWeather, © 2016

Note: Actual official high and low records may vary slightly from our data, if they occured in-between our weather recording intervals... More about our weather records

Advertising

Târgu Mureş Weather History for the Previous 24 Hours

Scroll right to see more
 ConditionsComfort  
Time TempWeatherWind HumidityBarometerVisibility
7:00 AM
Wed, May 25
55 °FLight rain. More clouds than sun.9 mph94%29.53 "HgN/A
6:30 AM55 °FLight rain. Passing clouds.8 mph94%29.53 "HgN/A
6:00 AM55 °FRain. Partly cloudy.9 mph94%29.53 "Hg5 mi
5:30 AM55 °FSprinkles. Partly cloudy.8 mph100%29.53 "Hg4 mi
5:00 AM57 °FSprinkles. Partly cloudy.8 mph94%29.53 "Hg4 mi
4:00 AM57 °FPartly cloudy.9 mph94%29.53 "HgN/A
3:00 AM55 °FLight rain. Partly cloudy.9 mph94%29.53 "HgN/A
2:00 AM57 °FLight rain. Passing clouds.10 mph88%29.53 "HgN/A
1:00 AM57 °FSprinkles. Partly cloudy.No wind94%29.56 "Hg5 mi
12:00 AM57 °FLight rain. Mostly cloudy.2 mph94%29.59 "Hg6 mi
11:00 PM
Tue, May 24
57 °FSprinkles. Passing clouds.5 mph94%29.59 "HgN/A
10:00 PM59 °FPassing clouds.2 mph88%29.62 "HgN/A
9:00 PM59 °FBroken clouds.No wind88%29.62 "HgN/A
8:30 PM59 °FBroken clouds.No wind88%29.62 "HgN/A
8:00 PM59 °FBroken clouds.No wind82%29.65 "HgN/A
7:30 PM59 °FPartly sunny.No wind88%29.65 "HgN/A
7:00 PM59 °FPartly sunny.3 mph88%29.65 "HgN/A
6:30 PM59 °FScattered clouds.7 mph88%29.65 "HgN/A
6:00 PM59 °FSprinkles. Broken clouds.3 mph88%29.65 "Hg4 mi
5:30 PM57 °FSprinkles. Broken clouds.7 mph94%29.65 "HgN/A
5:00 PM59 °FPartly sunny.8 mph88%29.62 "HgN/A
4:30 PM59 °FSprinkles. Scattered clouds.3 mph88%29.65 "HgN/A
4:00 PM57 °FRain showers. Partly sunny.6 mph94%29.65 "Hg5 mi
3:30 PM59 °FSprinkles. Partly sunny.10 mph82%29.65 "HgN/A
3:00 PM61 °FLots of rain. Broken clouds.14 mph72%29.65 "Hg4 mi
2:30 PM64 °FThundershowers. Scattered clouds.26 mph60%29.62 "HgN/A
2:00 PM68 °FScattered clouds.23 mph56%29.62 "HgN/A
1:30 PM77 °FPassing clouds.6 mph44%29.62 "HgN/A
1:00 PM77 °FPassing clouds.5 mph44%29.62 "HgN/A
12:30 PM75 °FPassing clouds.6 mph50%29.62 "HgN/A
12:00 PM73 °FPassing clouds.6 mph57%29.65 "HgN/A
11:30 AM72 °FPassing clouds.6 mph61%29.68 "HgN/A
11:00 AM72 °FPassing clouds.6 mph57%29.68 "HgN/A
10:30 AM68 °FSunny.2 mph69%29.68 "Hg10 mi
10:00 AM66 °FPassing clouds.5 mph73%29.71 "HgN/A
9:30 AM66 °FPassing clouds.5 mph73%29.71 "HgN/A
9:00 AM63 °FSunny.5 mph77%29.74 "Hg10 mi
8:30 AM61 °FPassing clouds.6 mph83%29.74 "HgN/A
8:00 AM59 °FScattered clouds.6 mph88%29.74 "HgN/A
Weather by CustomWeather, © 2016

See weather overviewHow to use our weather pages